Wolf Creek Pass, CO

1:11 AM MDT on March 28, 2017 (GMT -0600)
Wolf Creek Pass

Weather History for KCPW - December, 2012

Change the Weather History Date:

Friday, December 7, 2012

  Actual Average (KE33) Record (KE33)
Temperature  
Mean Temperature 20 °F -  
Max Temperature 24 °F 34 °F 48 °F (2006)
Min Temperature 17 °F 18 °F 8 °F (1996)
Degree Days  
Heating Degree Days 44    
Moisture  
Dew Point 19 °F    
Average Humidity 92    
Maximum Humidity 100    
Minimum Humidity 74    
Precipitation  
Precipitation 0.00 in - - ()
Sea Level Pressure  
Sea Level Pressure 30.02 in    
Wind  
Wind Speed 14 mph (SW)    
Max Wind Speed 22 mph    
Max Gust Speed 29 mph    
Visibility 7 miles    
Events Fog , Snow    
Averages and records for this station are not official NWS values.
T = Trace of Precipitation, MM = Missing Value Source: NWS Daily Summary

Daily Weather History Graph

Daily Weather History Graph

Search for Another Location

Airport or City:

Trip Planner

Search our weather history database for the weather conditions in past years. The results will help you decide how hot, cold, wet, or windy it might be!

Date:

Astronomy

Dec. 07, 2012 Rise Set
Actual Time 7:08 AM MST 4:49 PM MST
Civil Twilight 6:39 AM MST 5:18 PM MST
Nautical Twilight 6:07 AM MST 5:50 PM MST
Astronomical Twilight 5:35 AM MST 6:22 PM MST
Moon 12:37 AM MST (12/7) 12:41 PM MST (12/7)
Length of Visible Light 10h 38m
Length of Day
9h 40m
Last Quarter, 38% of the Moon is Illuminated
Dec 7
Last Quarter
Dec 13
New
Dec 19
First Quarter
Dec 28
Full
Jan 4
Last Quarter

Hourly Weather History & Observations

Time (MST) Temp. Windchill Dew Point Humidity Pressure Visibility Wind Dir Wind Speed Gust Speed Precip Events Conditions
12:03 AM 21.2 °F 7.8 °F 19.4 °F 93% 30.05 in 10.0 mi SW 15.0 mph - N/A   Overcast
12:23 AM 21.2 °F 7.3 °F 19.4 °F 93% 30.04 in 10.0 mi SW 16.1 mph 21.9 mph N/A   Overcast
12:43 AM 21.2 °F 7.3 °F 19.4 °F 93% 30.03 in 10.0 mi SW 16.1 mph 24.2 mph N/A   Overcast
1:03 AM 21.2 °F 6.0 °F 21.2 °F 100% 30.03 in 10.0 mi SW 19.6 mph 24.2 mph N/A   Overcast
1:23 AM 21.2 °F 6.4 °F 21.2 °F 100% 30.03 in 10.0 mi SW 18.4 mph 24.2 mph N/A   Overcast
1:43 AM 21.2 °F 6.8 °F 21.2 °F 100% 30.03 in 4.0 mi SW 17.3 mph 25.3 mph N/A   Overcast
2:03 AM 21.2 °F 6.4 °F 21.2 °F 100% 30.03 in 2.5 mi SW 18.4 mph 24.2 mph N/A   Overcast
2:23 AM 21.2 °F 6.8 °F 21.2 °F 100% 30.03 in 1.0 mi SW 17.3 mph - N/A   Overcast
2:43 AM 21.2 °F 7.3 °F 21.2 °F 100% 30.03 in 0.8 mi SW 16.1 mph 20.7 mph N/A   Overcast
3:03 AM 21.2 °F 8.3 °F 21.2 °F 100% 30.02 in 0.5 mi SW 13.8 mph 19.6 mph N/A Fog Light Freezing Fog
3:23 AM 21.2 °F 7.8 °F 21.2 °F 100% 30.02 in 0.5 mi SW 15.0 mph 21.9 mph N/A Fog Light Freezing Fog
3:43 AM 21.2 °F 7.8 °F 19.4 °F 93% 30.01 in 0.5 mi SW 15.0 mph 20.7 mph N/A Fog Light Freezing Fog
4:03 AM 19.4 °F 5.5 °F 19.4 °F 100% 30.00 in 0.5 mi SSW 15.0 mph 24.2 mph N/A Fog Light Freezing Fog
4:23 AM 19.4 °F 4.5 °F 19.4 °F 100% 30.00 in 0.5 mi SW 17.3 mph 21.9 mph N/A Fog Light Freezing Fog
4:43 AM 19.4 °F 4.5 °F 19.4 °F 100% 30.00 in 1.5 mi SW 17.3 mph 23.0 mph N/A   Overcast
5:03 AM 19.4 °F 5.5 °F 19.4 °F 100% 30.00 in 0.5 mi WSW 15.0 mph 19.6 mph N/A Fog Light Freezing Fog
5:23 AM 19.4 °F 4.5 °F 19.4 °F 100% 30.00 in 0.2 mi SW 17.3 mph - N/A Snow Light Snow
5:43 AM 19.4 °F 5.5 °F 19.4 °F 100% 30.01 in 0.2 mi SW 15.0 mph 18.4 mph N/A Snow Light Snow
6:03 AM 19.4 °F 8.6 °F 17.6 °F 93% 30.01 in 0.8 mi SW 9.2 mph - N/A   Overcast
6:23 AM 17.6 °F 6.4 °F 17.6 °F 100% 30.01 in 0.8 mi SW 9.2 mph - N/A   Overcast
6:43 AM 17.6 °F 10.7 °F 17.6 °F 100% 30.02 in 0.2 mi SSW 4.6 mph - N/A Fog Light Freezing Fog
7:03 AM 17.6 °F 6.4 °F 17.6 °F 100% 30.01 in 0.5 mi SW 9.2 mph - N/A Fog Light Freezing Fog
7:23 AM 19.4 °F 7.2 °F 17.6 °F 93% 30.00 in 0.5 mi SW 11.5 mph 16.1 mph N/A Fog Light Freezing Fog
7:43 AM 19.4 °F 7.9 °F 17.6 °F 93% 30.00 in 0.2 mi SW 10.4 mph 16.1 mph N/A Fog Light Freezing Fog
8:03 AM 19.4 °F 7.9 °F 17.6 °F 93% 30.01 in 0.5 mi SW 10.4 mph 16.1 mph N/A Fog Light Freezing Fog
8:23 AM 19.4 °F 7.9 °F 17.6 °F 93% 30.02 in 2.0 mi SW 10.4 mph 17.3 mph N/A   Overcast
8:43 AM 19.4 °F 5.0 °F 17.6 °F 93% 30.02 in 7.0 mi SW 16.1 mph - N/A   Mostly Cloudy
9:03 AM 21.2 °F 10.9 °F 19.4 °F 93% 30.02 in 10.0 mi South 9.2 mph - N/A   Overcast
9:23 AM 23.0 °F 13.9 °F 21.2 °F 93% 30.03 in 10.0 mi SSW 8.1 mph 16.1 mph N/A   Overcast
9:43 AM 21.2 °F 11.7 °F 19.4 °F 93% 30.04 in 10.0 mi SSW 8.1 mph - N/A   Overcast
10:03 AM 19.4 °F 8.6 °F 19.4 °F 100% 30.04 in 10.0 mi SSW 9.2 mph - N/A   Mostly Cloudy
10:23 AM 19.4 °F 7.9 °F 19.4 °F 100% 30.04 in 10.0 mi SSW 10.4 mph 17.3 mph N/A   Mostly Cloudy
10:42 AM 21.2 °F 10.9 °F 19.4 °F 93% 30.03 in 10.0 mi SSW 9.2 mph - N/A   Overcast
11:03 AM 21.2 °F 11.7 °F 19.4 °F 93% 30.03 in 10.0 mi SW 8.1 mph - N/A   Mostly Cloudy
11:23 AM 21.2 °F 10.9 °F 19.4 °F 93% 30.02 in 10.0 mi SSW 9.2 mph 19.6 mph N/A   Mostly Cloudy
11:43 AM 23.0 °F 11.7 °F 21.2 °F 93% 30.02 in 10.0 mi SSW 11.5 mph 19.6 mph N/A   Scattered Clouds
12:03 PM 23.0 °F 12.4 °F 19.4 °F 86% 30.01 in 10.0 mi SSW 10.4 mph 20.7 mph N/A   Scattered Clouds
12:23 PM 24.8 °F 15.3 °F 17.6 °F 74% 30.01 in 10.0 mi SW 9.2 mph - N/A   Scattered Clouds
12:43 PM 23.0 °F 10.6 °F 17.6 °F 80% 30.01 in 10.0 mi SSW 13.8 mph 20.7 mph N/A   Mostly Cloudy
1:03 PM 23.0 °F 12.4 °F 17.6 °F 80% 30.01 in 10.0 mi SSW 10.4 mph 19.6 mph N/A   Scattered Clouds
1:23 PM 23.0 °F 13.9 °F 17.6 °F 80% 30.00 in 10.0 mi SSW 8.1 mph - N/A   Mostly Cloudy
1:43 PM 24.8 °F 16.1 °F 17.6 °F 74% 30.00 in 10.0 mi SSW 8.1 mph 16.1 mph N/A   Mostly Cloudy
2:03 PM 24.8 °F 16.1 °F 17.6 °F 74% 30.00 in 10.0 mi SW 8.1 mph 18.4 mph N/A   Mostly Cloudy
2:23 PM 23.0 °F 12.4 °F 17.6 °F 80% 30.00 in 10.0 mi SSW 10.4 mph 16.1 mph N/A   Mostly Cloudy
2:42 PM 23.0 °F 9.2 °F 17.6 °F 80% 30.00 in 10.0 mi SW 17.3 mph 23.0 mph N/A   Scattered Clouds
3:03 PM 23.0 °F 10.1 °F 17.6 °F 80% 30.01 in 10.0 mi WSW 15.0 mph 19.6 mph N/A   Scattered Clouds
3:23 PM 23.0 °F 10.1 °F 17.6 °F 80% 30.01 in 10.0 mi SSW 15.0 mph 18.4 mph N/A   Scattered Clouds
3:43 PM 23.0 °F 13.1 °F 19.4 °F 86% 30.02 in 10.0 mi SW 9.2 mph 18.4 mph N/A   Mostly Cloudy
4:03 PM 23.0 °F 10.1 °F 19.4 °F 86% 30.02 in 10.0 mi SW 15.0 mph 20.7 mph N/A   Mostly Cloudy
4:23 PM 23.0 °F 9.6 °F 19.4 °F 86% 30.02 in 10.0 mi SW 16.1 mph 21.9 mph N/A   Overcast
4:43 PM 23.0 °F 11.1 °F 19.4 °F 86% 30.02 in 10.0 mi SW 12.7 mph 19.6 mph N/A   Overcast
5:02 PM 23.0 °F 10.1 °F 19.4 °F 86% 30.02 in 10.0 mi SW 15.0 mph 21.9 mph N/A   Overcast
5:23 PM 23.0 °F 10.1 °F 19.4 °F 86% 30.02 in 10.0 mi SW 15.0 mph 25.3 mph N/A   Overcast
5:43 PM 21.2 °F 5.6 °F 17.6 °F 86% 30.02 in 10.0 mi SW 20.7 mph 27.6 mph N/A   Overcast
6:03 PM 21.2 °F 5.6 °F 17.6 °F 86% 30.01 in 10.0 mi SW 20.7 mph 28.8 mph N/A   Overcast
6:22 PM 21.2 °F 5.2 °F 17.6 °F 86% 30.02 in 10.0 mi SW 21.9 mph 28.8 mph N/A   Mostly Cloudy
6:40 PM 19.4 °F 4.5 °F 17.6 °F 93% 30.02 in 10.0 mi SW 17.3 mph 28.8 mph N/A   Mostly Cloudy
7:00 PM 19.4 °F 4.5 °F 17.6 °F 93% 30.03 in 10.0 mi SW 17.3 mph 25.3 mph N/A   Mostly Cloudy
7:40 PM 19.4 °F 2.8 °F 17.6 °F 93% 30.03 in 10.0 mi SW 21.9 mph 28.8 mph N/A   Scattered Clouds
8:00 PM 19.4 °F 4.1 °F 17.6 °F 93% 30.02 in 10.0 mi SW 18.4 mph 26.5 mph N/A   Clear
8:20 PM 17.6 °F 3.2 °F 17.6 °F 100% 30.02 in 10.0 mi SW 15.0 mph 21.9 mph N/A   Clear
8:43 PM 17.6 °F 3.7 °F 17.6 °F 100% 30.02 in 10.0 mi SW 13.8 mph 19.6 mph N/A   Clear
9:03 PM 17.6 °F 5.7 °F 17.6 °F 100% 30.02 in 10.0 mi SW 10.4 mph - N/A   Clear
9:23 PM 17.6 °F 3.7 °F 17.6 °F 100% 30.02 in 10.0 mi SW 13.8 mph - N/A   Clear
9:43 PM 17.6 °F 3.7 °F 17.6 °F 100% 30.02 in 10.0 mi SW 13.8 mph - N/A   Mostly Cloudy
10:03 PM 17.6 °F 3.2 °F 17.6 °F 100% 30.02 in 7.0 mi SW 15.0 mph - N/A   Overcast
10:23 PM 17.6 °F 2.7 °F 15.8 °F 93% 30.02 in 7.0 mi SW 16.1 mph - N/A   Scattered Clouds
10:43 PM 17.6 °F 2.7 °F 17.6 °F 100% 30.01 in 10.0 mi SW 16.1 mph - N/A   Scattered Clouds
11:03 PM 17.6 °F 1.7 °F 15.8 °F 93% 30.01 in 10.0 mi SW 18.4 mph - N/A   Clear
11:23 PM 17.6 °F 1.3 °F 15.8 °F 93% 30.00 in 10.0 mi SW 19.6 mph - N/A   Scattered Clouds
11:43 PM 17.6 °F 1.7 °F 15.8 °F 93% 30.00 in 3.0 mi SW 18.4 mph - N/A   Overcast